Location: Hard
(40.6656°N, 81.9524°W)
Time: 05:27:37
(UTC+00:00)

Daily predictions for brighter satellites

Satellite Brightness Start Highest point End
(mag) Time Altitude Azimuth Time Altitude Azimuth Time Altitude Azimuth
Cosmos 1980 Rocket 2.9 01:22:49 10° SW 01:28:23 61° WNW 01:33:58 10° NNE
Cosmos 220 Rocket 4.3 01:24:50 10° S 01:28:58 46° ESE 01:33:04 10° NNE
Cosmos 1378 Rocket 4.0 01:25:35 10° SSE 01:29:40 43° E 01:33:49 10° NNE
Cosmos 1140 Rocket 3.5 01:26:54 10° NNW 01:32:11 81° ENE 01:37:25 10° SSE
Okean 2 4.0 01:28:37 10° SSE 01:32:24 38° E 01:36:11 10° NNE
CENTAUR R/B 2.4 01:27:57 10° SSW 01:33:38 80° ESE 01:40:26 10° NE
Cosmos 1733 3.6 01:30:05 10° NNW 01:33:56 67° W 01:37:45 10° S
Cosmos 1624 Rocket 4.1 01:30:47 10° SSW 01:36:07 88° ESE 01:41:26 10° NNE
Lacrosse 5 rocket 3.1 01:37:10 10° SE 01:37:44 10° ESE 01:38:17 10° ESE
Cosmos 292 Rocket 4.2 01:38:40 10° S 01:43:12 43° ESE 01:47:47 10° NNE
Cosmos 1707 3.6 01:39:49 10° SSE 01:43:16 32° E 01:46:44 10° NNE
Meteor 2-10 4.1 01:40:31 10° N 01:45:32 64° E 01:50:39 10° SSE
Meteor 1-22 Rocket 4.3 01:40:03 10° N 01:45:59 84° E 01:51:39 10° S
Okean 2 Rocket 3.8 01:47:22 10° NNW 01:51:48 57° W 01:56:12 10° S
Cosmos 1605 Rocket 4.1 01:48:03 10° N 01:54:25 65° E 02:00:43 10° SSE
Cosmos 2285 Rocket 4.0 01:50:22 10° S 01:56:46 75° ESE 02:03:12 10° NNE
FALCON 9 DEB 3.6 01:54:19 10° SSW 01:57:31 37° SE 02:00:42 10° ENE
Cosmos 1400 Rocket 3.8 01:54:21 10° NNW 01:58:03 44° W 02:01:44 10° SSW
Cosmos 1953 4.2 01:57:15 10° NNE 01:59:56 17° ENE 02:02:13 11° ESE
Cosmos 1452 Rocket 3.8 01:55:25 10° S 02:00:26 47° ESE 02:05:29 10° NNE
Resurs 01 Rocket 1.6 01:56:37 10° SSE 02:00:59 74° ENE 02:05:23 10° N
Cosmos 2263 Rocket 2.3 01:55:32 10° NNW 02:01:16 89° WSW 02:06:50 11° SSE
Cosmos 2151 Rocket 4.2 01:57:06 10° NNW 02:01:25 57° W 02:05:42 10° S
Cosmos 2056 Rocket 4.5 02:00:42 10° SW 02:05:44 51° WNW 02:10:53 10° N
Terra 3.8 02:03:17 10° E 02:05:53 15° ENE 02:08:30 10° NNE
IGS 5A 3.4 02:01:58 10° SSE 02:06:06 79° ENE 02:10:17 10° N
Lacrosse 5 2.1 02:04:31 10° NW 02:09:33 63° NE 02:13:41 15° ESE
In-Cosmos 22 4.3 02:05:17 10° SSE 02:10:21 50° E 02:15:27 10° NNE
SPOT 1/Viking Rocket 3.8 02:06:53 13° SE 02:11:15 52° ENE 02:16:14 10° N
Cosmos 1626 4.0 02:10:37 13° ESE 02:11:36 15° E 02:13:40 10° NE
Cosmos 1975 Rocket 3.7 02:09:40 14° SSE 02:12:54 36° E 02:16:55 10° NNE
Cosmos 2333 Rocket 3.7 02:14:46 15° SE 02:16:48 18° E 02:20:31 10° ENE
MetOp-B 4.1 02:13:57 13° SSE 02:18:44 75° ENE 02:24:05 10° N
Spot 2 Rocket 4.0 02:18:25 17° SE 02:22:01 45° ENE 02:26:51 10° N
KORONAS-FOTON 4.4 02:21:34 20° SSE 02:23:45 38° E 02:27:18 10° NNE
ERS-1 Rocket 3.9 02:24:37 18° ESE 02:27:43 35° ENE 02:32:15 10° N
JB-3 4.5 02:26:02 10° NNE 02:29:56 54° E 02:32:43 18° S
Cosmos 2219 Rocket 3.5 02:29:35 18° ESE 02:31:05 20° E 02:35:04 10° NE
ATLAS CENTAUR R/B 3.9 02:29:05 10° N 02:31:19 14° NE 02:33:35 10° ENE
Landsat 7 4.2 02:29:04 12° S 02:33:25 62° W 02:38:09 10° NNW
Cosmos 1470 3.9 02:34:33 10° NNW 02:38:18 41° W 02:41:53 11° SSW
SPOT 3 Rocket 4.0 02:33:59 12° S 02:38:43 58° W 02:43:50 10° NNW
ARIANE 5 R/B 2.9 02:36:13 24° SE 02:38:44 55° ENE 02:43:07 10° N
Cosmos 1674 2.5 02:41:23 24° S 02:43:30 71° E 02:47:13 10° NNE
ATLAS 3B R/B 3.1 02:39:16 14° S 02:44:11 37° ESE 02:50:13 10° NE
Cosmos 1741 Rocket 4.1 02:40:17 10° NNW 02:45:31 65° ENE 02:48:30 26° SE
CZ-2C R/B 4.3 02:41:32 10° N 02:46:15 62° WNW 02:50:57 10° SSW
Cosmos 1315 Rocket 4.1 02:46:25 10° NNW 02:50:14 37° W 02:53:31 13° SSW
Cosmos 2123 Rocket 4.5 02:48:01 23° SE 02:51:26 43° E 02:57:20 10° NNE
SL-16 R/B 3.3 02:46:00 10° SW 02:51:26 47° WNW 02:56:54 10° NNE
Cosmos 2360 Rocket 2.1 02:46:54 10° SSW 02:52:33 81° ESE 02:58:13 10° NNE
Cosmos 2322 Rocket 2.8 02:48:27 10° SW 02:54:02 58° WNW 02:59:42 10° NNE
Cosmos 1300 4.4 02:52:01 10° NNE 02:54:48 19° ENE 02:55:23 18° E
H-2A R/B 4.1 02:54:24 10° NNE 02:58:09 34° E 02:58:45 32° ESE
Cosmos 1544 Rocket 3.9 02:54:00 10° N 02:58:21 49° E 02:59:55 33° SE
Cosmos 1726 4.3 02:58:26 10° NW 03:01:11 21° W 03:03:56 10° SW
Cosmos 1455 Rocket 3.0 02:58:51 10° N 03:03:20 86° W 03:05:24 32° S
Meteor 1-16 Rocket 4.1 02:59:01 10° N 03:04:31 88° W 03:07:26 28° S
Cosmos 2100 Rocket 4.0 02:58:40 10° N 03:05:05 89° E 03:08:59 25° S
COSMOS 2428 3.5 03:06:54 30° SE 03:08:15 33° ESE 03:13:20 10° NE
USA 215 3.4 03:03:02 10° NE 03:09:21 50° SE 03:15:39 10° SSW
Cosmos 2322 3.8 03:08:15 29° SSE 03:10:53 52° ESE 03:16:22 10° NNE
Cosmos 1340 2.8 03:10:39 47° ESE 03:11:06 50° E 03:14:46 10° NNE
BREEZE-M DEB (TANK) 2.5 03:08:27 10° NW 03:11:14 44° NNE 03:11:14 44° NNE
Cosmos 1908 3.3 03:09:45 10° NNW 03:13:38 74° W 03:14:50 42° S
Lacrosse 5 rocket 1.1 03:12:38 10° SW 03:16:20 75° NW 03:19:56 10° NE
Cosmos 405 3.7 03:13:47 10° N 03:17:00 36° ENE 03:17:02 36° ENE
Cosmos 1110 Rocket 4.3 03:15:28 12° SSW 03:20:15 67° WNW 03:25:27 10° NNE
Cosmos 2278 Rocket 4.3 03:16:51 10° N 03:20:27 17° NE 03:23:55 10° E
Cosmos 2173 Rocket 4.2 03:17:55 10° NNW 03:24:16 70° W 03:28:00 26° S
Cosmos 2016 Rocket 3.9 03:21:05 10° N 03:27:13 82° E 03:29:57 35° SSE
Cosmos 1536 Rocket 3.5 03:26:46 49° SSE 03:27:50 69° E 03:32:17 10° NNE
Cosmos 1844 Rocket 2.7 03:26:27 10° NNW 03:32:08 78° WSW 03:34:17 40° S
SPOT 5 3.4 03:30:02 32° SSW 03:32:20 58° W 03:37:17 10° NNW
Meteor 2-5 Rocket 3.6 03:32:04 40° SSE 03:34:01 68° E 03:39:34 10° NNE
Cosmos 1900 4.4 03:29:19 10° NNW 03:34:12 65° ENE 03:35:33 45° ESE
Cosmos 1953 3.6 03:32:43 10° NNW 03:36:25 34° W 03:37:53 26° SW
Cosmos 1725 Rocket 3.9 03:32:36 10° N 03:38:49 86° E 03:41:21 39° S
Cosmos 1025 Rocket 4.0 03:37:24 24° SW 03:39:40 44° WNW 03:43:52 10° N
SL-14 R/B 3.5 03:39:12 48° SW 03:40:10 67° W 03:44:12 10° N
Terra 2.0 03:41:40 42° SSW 03:43:06 63° W 03:47:50 10° NNW
Cosmos 1626 3.7 03:45:06 23° WSW 03:46:30 31° WNW 03:49:49 10° NNW
Cosmos 2228 3.7 03:47:27 10° N 03:51:37 40° ENE 03:51:51 40° E
Lacrosse 5 3.5 03:48:21 10° WNW 03:52:07 21° WSW 03:52:53 20° SW
Cosmos 1461 3.5 03:52:22 10° NW 03:56:19 42° WSW 03:56:20 42° WSW
Cosmos 2333 Rocket 2.6 03:56:42 22° SW 04:00:29 64° WNW 04:06:11 10° NNE
BREEZE-M DEB (TANK) 3.5 03:47:57 10° SW 04:02:07 74° SSE 04:05:55 10° ENE
DNEPR-1 R/B 3.4 03:58:55 10° NNW 04:03:10 76° ENE 04:03:30 70° ESE
ATLAS CENTAUR R/B 1.4 04:06:20 10° NNW 04:10:44 89° WSW 04:10:56 82° SSE
SL-8 R/B 3.5 04:08:32 10° WNW 04:13:21 87° SSW 04:13:41 77° SE
Cosmos 2219 Rocket 2.7 04:11:14 24° SW 04:14:32 57° WNW 04:20:08 10° NNE
Cosmos 1844 4.5 04:11:28 10° NW 04:16:37 39° WSW 04:17:50 35° SW
Cosmos 2058 Rocket 4.3 04:13:26 10° NNE 04:17:21 30° ENE 04:17:22 30° ENE
Cosmos 389 Rocket 3.5 04:16:10 10° N 04:18:37 43° NNE 04:18:37 43° NNE
Meteor 1-24 Rocket 4.0 04:19:35 39° SW 04:21:18 57° WNW 04:26:39 10° N
Meteor 2-10 Rocket 3.2 04:16:39 10° N 04:21:45 88° W 04:22:19 71° S
Cosmos 1455 3.3 04:19:10 10° N 04:22:07 36° NE 04:22:07 36° NE
SL-16 R/B 4.0 04:25:54 17° E 04:25:54 17° E 04:28:49 10° ENE
ATLAS CENTAUR R/B 3.3 04:26:29 43° ESE 04:26:29 43° ESE 04:35:35 10° NE
Cosmos 1726 Rocket 3.7 04:22:34 10° N 04:26:54 63° ENE 04:26:54 63° ENE
Spot 4 3.7 04:28:51 73° ESE 04:29:11 77° ENE 04:33:58 10° N
Cosmos 2237 Rocket 2.2 04:29:30 56° ESE 04:29:48 57° ESE 04:35:18 10° NNE
Cosmos 1300 4.3 04:27:12 10° NNW 04:30:18 26° W 04:30:18 26° W
Cosmos 1867 3.7 04:28:18 10° NNW 04:33:46 67° NE 04:34:47 55° ESE
ATLAS 3B R/B 3.6 04:28:32 10° WSW 04:34:44 44° NW 04:41:09 10° NNE
Cosmos 1892 Rocket 3.6 04:40:55 78° NNE 04:40:55 78° NNE 04:45:05 10° N
Cosmos 1346 Rocket 3.7 04:41:09 42° WNW 04:41:09 42° WNW 04:44:55 10° N
Cosmos 1606 Rocket 3.7 04:36:39 10° NNW 04:40:57 68° W 04:40:57 68° W
ALOS 2 2.9 04:41:23 55° ENE 04:41:23 55° ENE 04:45:34 10° N
SJ 16-02 3.9 04:44:38 10° NE 04:46:19 12° ENE 04:47:52 10° ENE
Meteor 1-21 Rocket 4.2 04:46:49 61° SE 04:47:21 65° E 04:52:58 10° NNE
Cosmos 967 Rocket 4.4 04:43:14 10° NW 04:49:36 75° WSW 04:50:46 60° S
SL-4 R/B 3.7 04:52:00 24° NE 04:52:00 24° NE 04:53:34 10° NE
COBE Rocket 3.8 04:50:14 80° SSE 04:50:32 89° ENE 04:55:34 10° NNW
USA 215 4.0 04:46:04 10° NE 04:52:20 51° NNW 04:58:36 10° WSW
COSMOS 2428 4.0 04:48:51 18° WSW 04:52:27 36° WNW 04:57:44 10° N
Cosmos 1891 Rocket 4.4 04:47:16 10° N 04:53:27 88° E 04:54:39 61° S
Lacrosse 5 rocket 4.2 04:54:10 10° NW 04:55:57 13° NNW 04:57:43 10° N
Cosmos 1513 Rocket 4.3 04:53:06 10° N 04:59:12 87° W 05:00:16 63° S
NOSS 0 Rocket 4.2 04:57:14 41° SW 04:59:22 65° WNW 05:05:35 10° NNE
Cosmos 1486 Rocket 4.4 04:56:57 10° NNW 05:01:58 49° WSW 05:02:04 49° WSW
Cosmos 1072 Rocket 4.5 04:58:24 10° N 05:04:49 79° W 05:06:04 60° SSW
Cosmos 2278 Rocket 2.0 04:59:32 10° NNW 05:05:14 80° WSW 05:05:45 72° S
Cosmos 1703 4.0 05:11:13 52° N 05:11:13 52° N 05:14:18 10° N
Cosmos 1626 Rocket 4.0 05:11:52 56° ENE 05:11:52 56° ENE 05:15:44 10° NNE
Cosmos 1441 Rocket 4.1 05:13:00 49° N 05:13:00 49° N 05:15:55 10° N
Cosmos 1354 Rocket 3.9 05:09:53 10° NNW 05:15:15 80° WSW 05:15:27 78° SW
Cosmos 1602 Rocket 4.2 05:18:27 48° ENE 05:18:27 48° ENE 05:22:16 10° NNE
GEOS 3 Rocket 4.4 05:20:24 39° WSW 05:20:24 39° WSW 05:25:00 10° NW
Nimbus 7 Rocket 4.4 05:15:53 10° NNE 05:21:58 83° WNW 05:23:07 61° SSW
USA 267 3.2 05:21:42 42° SE 05:24:12 87° NE 05:30:46 10° NW
Cosmos 1464 Rocket 4.4 05:27:52 10° NNW 05:33:58 51° W 05:35:08 46° SW
Okean 1-7 Rocket 4.5 05:35:55 41° WNW 05:35:55 41° WNW 05:40:01 10° N
Aureole 3 4.3 05:34:35 10° N 05:37:46 41° ENE 05:37:46 41° ENE
Cosmos 1607 3.9 05:37:12 10° NW 05:43:33 67° WSW 05:44:13 62° SSW
Cosmos 1634 Rocket 4.2 05:38:00 10° N 05:44:15 63° E 05:45:48 49° SE
Cosmos 1943 Rocket 3.0 05:43:01 10° N 05:48:17 43° ENE 05:50:14 32° ESE
Cosmos-2242 3.8 05:44:12 10° N 05:48:21 45° ENE 05:48:21 45° ENE
Cosmos 1825 4.5 05:52:57 17° ENE 05:52:57 17° ENE 05:54:57 10° NE
Cosmos 1812 Rocket 3.7 05:52:57 10° N 05:56:46 67° NNW 05:56:46 67° NNW
Resurs 1-4 Rocket 3.8 05:56:22 10° NE 06:00:17 20° E 06:01:20 19° ESE
Meteor 1-4 Rocket 4.4 05:59:38 10° NNW 06:01:22 24° NW 06:01:22 24° NW
USA 32 4.2 06:00:49 10° NNW 06:05:56 55° W 06:06:09 54° W
GP-B 3.6 06:02:49 10° N 06:06:48 49° WNW 06:06:48 49° WNW
SL-16 R/B 2.3 06:07:45 54° WSW 06:08:46 65° WNW 06:14:26 10° NNE
CZ-2D R/B 3.6 06:05:23 10° NE 06:09:31 23° E 06:10:33 22° ESE
USA 229 DEB 3.6 06:08:35 55° SSE 06:09:39 63° ESE 06:16:16 10° NE
USA 229 3.6 06:08:42 54° SSE 06:09:45 62° ESE 06:16:22 10° NE
Cosmos 2237 Rocket 4.1 06:11:17 15° W 06:14:14 22° NW 06:18:34 10° N
Cosmos 468 Rocket 4.3 06:16:01 50° ESE 06:16:22 51° ESE 06:21:25 10° NNE
ADEOS II 4.4 06:15:05 10° ENE 06:17:22 13° E 06:19:31 10° ESE
Cosmos 2221 4.5 06:14:16 10° NNE 06:17:33 21° ENE 06:18:55 18° E
X-37B 3.1 06:21:11 18° ENE 06:21:11 18° ENE 06:22:08 10° ENE
Cosmos 1408 3.4 06:20:25 48° NNE 06:20:25 48° NNE 06:23:13 10° NNE
NOSS 3-1 (C) 3.2 06:18:54 55° WSW 06:19:58 71° NW 06:26:04 10° NNE
BREEZE-M DEB (TANK) 4.1 06:20:56 45° SW 06:23:18 77° SE 06:48:24 10° ENE
Cosmos 1825 Rocket 3.6 06:24:06 73° WNW 06:24:06 73° WNW 06:28:25 10° N
BREEZE M DEB (TANK) 4.2 06:22:37 44° SW 06:24:57 76° SSE 07:05:02 10° ENE
BREEZE M DEB (TANK) 4.2 06:22:37 44° SW 06:24:57 76° SSE 07:05:03 10° ENE
SJ 16-02 1.6 06:21:02 10° NNW 06:24:49 60° WNW 06:24:49 60° WNW
Cosmos 2369 Rocket 3.0 06:22:32 10° NNW 06:28:04 48° ENE 06:31:22 23° SE
NOSS 2-3 (E) 3.7 06:29:03 63° NW 06:29:05 63° NW 06:33:40 10° NNE
NOSS 3-1 (A) 3.0 06:28:32 65° S 06:29:17 78° ESE 06:35:20 10° NE
SL-4 R/B 4.1 06:27:29 14° WNW 06:29:41 22° NNW 06:32:37 10° NNE
Cosmos 1869 3.5 06:26:00 10° N 06:29:42 72° N 06:29:42 72° N
SL-16 R/B 3.6 06:26:24 17° SE 06:30:40 40° ENE 06:36:22 10° N
Meteor 2-13 Rocket 4.4 06:30:03 54° S 06:31:35 84° E 06:37:46 10° N
Cosmos 2142 Rocket 4.4 06:29:45 10° N 06:35:53 76° W 06:37:21 53° SSW
Cosmos 1763 Rocket 3.3 06:35:28 68° SSE 06:36:02 77° ESE 06:41:09 10° NNE
Cosmos 1437 Rocket 3.9 06:33:36 10° N 06:37:12 35° ENE 06:37:37 34° E
Cosmos 2058 3.3 06:40:52 52° E 06:40:54 52° E 06:44:53 10° NNE
Cosmos 724 4.4 06:34:55 10° NW 06:40:55 57° WSW 06:41:42 53° SW
CZ-4 R/B 3.7 06:40:58 10° N 06:45:37 69° WNW 06:46:04 64° WSW
Meteor 1-27 4.4 06:41:21 10° NNW 06:46:43 50° W 06:47:24 47° WSW
Cosmos 1953 Rocket 3.6 06:46:59 63° W 06:47:00 63° W 06:51:22 10° N
Cosmos 2297 3.9 06:41:54 10° NW 06:47:17 47° WSW 06:47:36 47° WSW
ATLAS 5 CENTAUR R/B 3.5 06:48:01 16° ESE 06:48:01 16° ESE 06:50:21 10° ENE
DELTA 2 R/B (1) 3.9 06:48:29 46° SSE 06:48:29 46° SSE 06:53:32 10° E
Cosmos 1892 3.9 06:53:15 33° WNW 06:53:15 33° WNW 06:56:23 10° N
USA 307 4.4 06:58:46 25° ESE 06:58:46 25° ESE 07:01:50 10° ENE
Helios 1A 3.2 06:59:24 54° W 06:59:24 54° W 07:03:15 10° NNW
Cosmos 1633 3.8 07:03:06 30° ESE 07:03:23 31° E 07:06:31 10° NNE
Helios 1B rocket 2.7 07:01:35 10° NNE 07:05:37 56° E 07:06:08 52° SE
USA 267 4.4 07:09:00 23° WSW 07:09:00 23° WSW 07:12:48 10° WNW
Cosmos 1842 Rocket 3.5 07:05:11 10° N 07:09:31 76° E 07:10:27 53° SSE
USA 308 3.8 07:13:55 34° SE 07:13:58 34° SE 07:17:49 10° ENE
NOSS 2-2 (D) 4.1 07:17:58 33° ESE 07:17:58 33° ESE 07:21:03 10° NE
Cosmos 990 Rocket 4.2 07:16:23 10° NNW 07:21:23 51° WSW 07:22:18 45° SW
Cosmos 841 Rocket 3.4 07:19:57 47° SSW 07:21:29 89° WNW 07:26:40 10° NNE
UNK 3.6 07:21:01 43° SSE 07:22:30 89° W 07:27:08 10° NNW
Cosmos 405 Rocket 4.0 07:24:00 26° WNW 07:24:00 26° WNW 07:27:03 10° NNW
Cosmos 540 Rocket 3.4 07:22:33 46° SW 07:24:01 71° WNW 07:29:09 10° NNE
Meteor 2-19 Rocket 4.5 07:21:38 33° S 07:24:35 78° E 07:30:44 10° N
Cosmos 921 Rocket 2.9 07:24:20 55° S 07:25:11 79° ESE 07:29:23 10° NNE
Cosmos 1943 3.3 07:23:13 39° SW 07:25:13 64° WNW 07:30:51 10° NNE
Cosmos 1898 Rocket 3.5 07:20:40 10° NNW 07:25:49 59° WSW 07:27:17 43° SSW
Cosmos 1825 3.4 07:27:43 27° WNW 07:27:43 27° WNW 07:30:57 10° NNW
Lacrosse 4 Rocket 3.8 07:25:41 10° N 07:28:56 22° NE 07:32:09 10° ESE
Cosmos 1937 Rocket 3.4 07:25:08 10° NNW 07:30:28 76° WSW 07:32:59 32° S
Cosmos 1603 4.0 07:28:43 35° WSW 07:30:56 55° WNW 07:36:30 10° NNE
Cosmos 1943 Rocket 3.3 07:27:20 10° NW 07:31:43 25° WSW 07:31:43 25° WSW
USA 305 3.1 07:32:36 48° S 07:33:20 56° SE 07:37:30 10° ENE
SL-19 R/B 4.1 07:28:14 10° NNE 07:33:31 86° ESE 07:35:55 35° SSW
NPP 3.7 07:29:56 10° N 07:35:18 71° WNW 07:37:30 36° SSW
Resurs 1-4 Rocket 2.5 07:35:13 10° N 07:40:20 49° WNW 07:42:25 32° SW
Cosmos 1076 Rocket 3.5 07:41:45 45° SW 07:42:50 63° W 07:47:03 10° N
Cosmos 1814 Rocket 3.9 07:43:19 36° SSW 07:45:32 81° WNW 07:50:45 10° NNE
Cosmos 2151 3.0 07:45:23 36° S 07:47:02 78° E 07:51:15 10° N
Cosmos 1570 Rocket 4.0 07:45:18 35° SSW 07:47:34 79° WNW 07:52:49 10° NNE
CZ-2D R/B 2.7 07:44:50 10° N 07:49:42 41° WNW 07:51:52 28° WSW
Cosmos 2221 3.4 07:51:22 10° NNW 07:55:07 30° W 07:55:44 29° WSW
USA 306 2.8 07:53:56 39° SW 07:55:28 85° SE 07:59:43 10° NE
X-37B 2.2 07:53:27 13° WNW 07:55:55 35° N 07:58:52 10° ENE
Meteor 1-29 3.0 07:52:57 10° N 07:56:21 64° WNW 07:57:07 47° SW
NOSS 2-2 (E) 3.2 07:56:15 40° WSW 07:57:12 58° NW 08:00:47 10° NNE
ADEOS II 2.1 07:52:20 10° N 07:57:36 76° WNW 08:00:27 28° SSW
AQUA 4.2 07:53:18 10° N 07:57:53 49° WNW 07:59:56 29° SW
Cosmos 2208 Rocket 4.1 07:56:29 29° SSW 07:59:16 77° WNW 08:04:45 10° NNE
DELTA 2 DEB (DPAF) 4.1 08:03:00 17° SSE 08:06:21 86° WSW 08:10:50 10° NNW
Cosmos 2026 Rocket 4.1 08:02:46 25° SSW 08:06:31 63° W 08:12:48 10° N
SeaSat 1 2.7 08:02:10 10° NNE 08:07:05 65° ESE 08:10:13 22° SSW
ARIANE 5 R/B 3.7 08:04:19 10° NNE 08:08:56 37° E 08:13:33 10° SSE
NOSS 2-2 (C) 3.3 08:08:55 33° WSW 08:10:11 55° NW 08:13:44 10° NNE
Cosmos 1606 3.7 08:06:55 10° NNW 08:10:16 29° W 08:10:56 27° WSW
Cosmos 2369 Rocket 3.3 08:07:17 10° NW 08:11:44 24° W 08:13:05 22° WSW
Cosmos 372 Rocket 4.1 08:08:54 10° NNW 08:13:59 54° WSW 08:18:05 16° S
SL-16 R/B 3.3 08:11:30 23° SW 08:14:16 32° W 08:19:47 10° NW
Cosmos 1242 Rocket 3.9 08:11:39 10° NW 08:14:33 23° W 08:14:48 23° W
USA 290 3.0 08:15:00 30° WSW 08:15:54 37° WNW 08:18:56 10° N
IDEFIX/ARIANE 42P 2.6 08:11:42 10° NNE 08:16:58 87° ESE 08:20:56 18° SSW
Cosmos 1656 Rocket 4.4 08:12:54 10° NW 08:17:56 33° WSW 08:20:52 21° SSW
Meteor 1-28 Rocket 3.2 08:18:35 22° S 08:20:49 58° W 08:24:35 10° NNW
USA 281 3.3 08:15:06 10° SSE 08:21:41 86° ENE 08:28:17 10° NNW
Meteor 2-14 Rocket 4.5 08:16:48 14° S 08:22:10 83° E 08:28:18 10° N
IRS-1C 4.4 08:17:09 10° NNE 08:22:28 65° ESE 08:27:23 12° S
CZ-4C R/B 3.5 08:19:37 10° SSE 08:23:33 27° ESE 08:28:00 10° NE
CZ-4B R/B 4.3 08:18:35 10° NNE 08:23:44 50° E 08:28:46 10° S
IRIDIUM 106 4.3 08:18:54 10° N 08:24:08 80° W 08:29:01 12° S
GPS 2-04 Rocket1 3.4 08:23:33 26° SSW 08:24:56 34° S 08:28:24 10° ESE
Cosmos 1437 4.0 08:24:27 10° NW 08:26:23 20° W 08:26:23 20° W
ATLAS 5 CENTAUR R/B 2.1 08:29:31 19° WSW 08:31:57 42° NW 08:36:06 10° NNE
DELTA 2 R/B (1) 3.5 08:29:13 12° W 08:34:27 80° S 08:40:01 10° E
USA 307 3.5 08:34:52 16° WSW 08:38:04 48° NW 08:42:12 10° NE
Cosmos 1766 Rocket 3.5 08:35:18 15° SSW 08:38:59 76° W 08:43:28 10° N
Okean 3 Rocket 3.5 08:36:47 14° SSW 08:40:30 76° W 08:44:54 10° N
Cosmos 2266 Rocket 4.1 08:35:21 10° S 08:41:28 76° E 08:47:32 10° N
ADEOS Rocket 3.9 08:35:06 11° SSW 08:41:50 41° W 08:48:19 10° NNW
Cosmos 2292 Rocket 3.8 08:42:37 19° WSW 08:44:03 28° W 08:46:39 10° NNW
Cosmos 1408 Rocket 4.1 08:40:01 10° S 08:44:22 60° E 08:48:46 10° NNE
Cosmos 1151 Rocket 2.9 08:41:54 10° NNW 08:46:10 74° W 08:50:23 10° S
Meteor 2-3 Rocket 4.3 08:44:05 15° SW 08:48:23 42° WNW 08:53:41 10° N
Tianhe-1 3.7 08:49:57 10° SSE 08:50:19 10° SE 08:50:42 10° SE
USA 308 3.9 08:50:01 11° W 08:53:53 38° NNW 08:57:53 10° NE
Cosmos 1655 Rocket 4.0 08:49:09 10° SSW 08:55:20 74° W 09:01:35 10° N
Alouette 2 Rocket 3.4 08:55:13 10° NNW 08:58:42 54° W 09:02:49 10° S
Cosmos 1782 3.3 08:56:23 10° NNW 09:00:10 41° W 09:03:56 10° SSW
CZ-4C R/B 3.9 08:57:26 11° SSW 09:00:21 29° W 09:03:25 10° NW
ASTEX 1 3.8 08:57:51 10° SSW 09:02:36 45° W 09:07:21 10° NNW
IRS-P3 4.4 08:57:41 10° N 09:02:53 54° WNW 09:08:02 10° SSW
MSX 4.2 08:58:51 10° N 09:04:25 52° WNW 09:09:58 10° SW
ALOS 3.8 09:01:07 10° NNE 09:05:24 35° E 09:09:40 10° SSE
CZ-2C R/B 3.7 09:02:01 10° NNE 09:05:46 46° E 09:09:25 10° S
Lacrosse 4 Rocket 2.1 09:04:00 10° NW 09:07:38 31° WSW 09:11:13 10° S
COSMOS 2406 4.1 09:06:50 10° S 09:12:13 47° ESE 09:17:38 10° NE
USA 305 4.5 09:09:47 10° W 09:13:29 28° NNW 09:17:11 10° NNE
BREEZE-M DEB (TANK) 3.4 09:11:55 10° NW 09:14:05 36° NNE 09:17:43 10° E
Cosmos 1812 2.8 09:11:28 10° NNW 09:15:15 60° W 09:19:01 10° S
Chandra Rocket (1) 4.4 09:14:23 10° SW 09:18:37 16° S 09:21:13 10° SSE
Cosmos 1271 Rocket 3.3 09:17:59 10° NNW 09:21:25 35° W 09:24:52 10° SSW
Cosmos 773 Rocket 4.2 09:19:42 10° SSW 09:24:59 78° ESE 09:30:18 10° NNE
Cosmos 2315 Rocket 4.0 09:19:36 10° N 09:25:48 79° W 09:32:00 10° S
